﻿測定場所 (Monitoring sites),日付 (Measurement date),時間 (Measurement time),線量率 最大値 (max) μGy/h,線量率 最小値 (min) μGy/h,線量率 平均値 (average) μGy/h,
調布 (Chofu),2022-07-17,23:01～24:00,0.0285,0.0251,0.0268,
調布 (Chofu),2022-07-17,22:01～23:00,0.0285,0.0249,0.0269,
調布 (Chofu),2022-07-17,21:01～22:00,0.0288,0.0245,0.0265,
調布 (Chofu),2022-07-17,20:01～21:00,0.0282,0.0247,0.0265,
調布 (Chofu),2022-07-17,19:01～20:00,0.0291,0.0252,0.0269,
調布 (Chofu),2022-07-17,18:01～19:00,0.0288,0.0248,0.0265,
調布 (Chofu),2022-07-17,17:01～18:00,0.0287,0.0246,0.0266,
調布 (Chofu),2022-07-17,16:01～17:00,0.0285,0.0246,0.0267,
調布 (Chofu),2022-07-17,15:01～16:00,0.0281,0.0246,0.0266,
調布 (Chofu),2022-07-17,14:01～15:00,0.0284,0.0237,0.0264,
調布 (Chofu),2022-07-17,13:01～14:00,0.0277,0.0243,0.0261,
調布 (Chofu),2022-07-17,12:01～13:00,0.0279,0.0245,0.0261,
調布 (Chofu),2022-07-17,11:01～12:00,0.0274,0.0245,0.0261,
調布 (Chofu),2022-07-17,10:01～11:00,0.0281,0.0243,0.0263,
調布 (Chofu),2022-07-17,09:01～10:00,0.0306,0.0253,0.0273,
調布 (Chofu),2022-07-17,08:01～09:00,0.0306,0.0260,0.0286,
調布 (Chofu),2022-07-17,07:01～08:00,0.0351,0.0279,0.0314,
調布 (Chofu),2022-07-17,06:01～07:00,0.0359,0.0260,0.0296,
調布 (Chofu),2022-07-17,05:01～06:00,0.0315,0.0257,0.0290,
調布 (Chofu),2022-07-17,04:01～05:00,0.0336,0.0256,0.0303,
調布 (Chofu),2022-07-17,03:01～04:00,0.0291,0.0252,0.0270,
調布 (Chofu),2022-07-17,02:01～03:00,0.0320,0.0259,0.0292,
調布 (Chofu),2022-07-17,01:01～02:00,0.0364,0.0272,0.0316,
調布 (Chofu),2022-07-17,00:01～01:00,0.0549,0.0357,0.0437,
調布 (Chofu),2022-07-16,23:01～24:00,0.0537,0.0403,0.0476,
調布 (Chofu),2022-07-16,22:01～23:00,0.0448,0.0338,0.0379,
調布 (Chofu),2022-07-16,21:01～22:00,0.0378,0.0293,0.0333,
調布 (Chofu),2022-07-16,20:01～21:00,0.0312,0.0260,0.0286,
調布 (Chofu),2022-07-16,19:01～20:00,0.0330,0.0263,0.0300,
調布 (Chofu),2022-07-16,18:01～19:00,0.0314,0.0266,0.0287,
調布 (Chofu),2022-07-16,17:01～18:00,0.0315,0.0269,0.0288,
調布 (Chofu),2022-07-16,16:01～17:00,0.0364,0.0282,0.0321,
調布 (Chofu),2022-07-16,15:01～16:00,0.0478,0.0341,0.0394,
調布 (Chofu),2022-07-16,14:01～15:00,0.0657,0.0448,0.0557,
調布 (Chofu),2022-07-16,13:01～14:00,0.0638,0.0418,0.0542,
調布 (Chofu),2022-07-16,12:01～13:00,0.0426,0.0305,0.0345,
調布 (Chofu),2022-07-16,11:01～12:00,0.0383,0.0298,0.0344,
調布 (Chofu),2022-07-16,10:01～11:00,0.0339,0.0263,0.0301,
調布 (Chofu),2022-07-16,09:01～10:00,0.0308,0.0265,0.0283,
調布 (Chofu),2022-07-16,08:01～09:00,0.0293,0.0255,0.0275,
調布 (Chofu),2022-07-16,07:01～08:00,0.0299,0.0265,0.0284,
調布 (Chofu),2022-07-16,06:01～07:00,0.0302,0.0256,0.0278,
調布 (Chofu),2022-07-16,05:01～06:00,0.0295,0.0252,0.0274,
調布 (Chofu),2022-07-16,04:01～05:00,0.0289,0.0256,0.0269,
調布 (Chofu),2022-07-16,03:01～04:00,0.0291,0.0254,0.0270,
調布 (Chofu),2022-07-16,02:01～03:00,0.0281,0.0244,0.0261,
調布 (Chofu),2022-07-16,01:01～02:00,0.0281,0.0242,0.0262,
調布 (Chofu),2022-07-16,00:01～01:00,0.0282,0.0250,0.0262,
調布 (Chofu),2022-07-15,23:01～24:00,0.0279,0.0243,0.0261,
調布 (Chofu),2022-07-15,22:01～23:00,0.0285,0.0241,0.0263,
調布 (Chofu),2022-07-15,21:01～22:00,0.0300,0.0246,0.0273,
調布 (Chofu),2022-07-15,20:01～21:00,0.0369,0.0272,0.0312,
調布 (Chofu),2022-07-15,19:01～20:00,0.0486,0.0350,0.0405,
調布 (Chofu),2022-07-15,18:01～19:00,0.0530,0.0429,0.0475,
調布 (Chofu),2022-07-15,17:01～18:00,0.0533,0.0439,0.0480,
調布 (Chofu),2022-07-15,16:01～17:00,0.0498,0.0357,0.0420,
調布 (Chofu),2022-07-15,15:01～16:00,0.0429,0.0362,0.0389,
調布 (Chofu),2022-07-15,14:01～15:00,0.0416,0.0284,0.0354,
調布 (Chofu),2022-07-15,13:01～14:00,0.0307,0.0248,0.0269,
調布 (Chofu),2022-07-15,12:01～13:00,0.0295,0.0248,0.0275,
調布 (Chofu),2022-07-15,11:01～12:00,0.0370,0.0278,0.0325,
調布 (Chofu),2022-07-15,10:01～11:00,0.0428,0.0354,0.0390,
調布 (Chofu),2022-07-15,09:01～10:00,0.0385,0.0289,0.0339,
調布 (Chofu),2022-07-15,08:01～09:00,0.0329,0.0261,0.0296,
調布 (Chofu),2022-07-15,07:01～08:00,0.0300,0.0250,0.0278,
調布 (Chofu),2022-07-15,06:01～07:00,0.0286,0.0243,0.0261,
調布 (Chofu),2022-07-15,05:01～06:00,0.0278,0.0235,0.0258,
調布 (Chofu),2022-07-15,04:01～05:00,0.0281,0.0244,0.0260,
調布 (Chofu),2022-07-15,03:01～04:00,0.0276,0.0238,0.0258,
調布 (Chofu),2022-07-15,02:01～03:00,0.0285,0.0241,0.0261,
調布 (Chofu),2022-07-15,01:01～02:00,0.0307,0.0256,0.0275,
調布 (Chofu),2022-07-15,00:01～01:00,0.0361,0.0273,0.0311,
調布 (Chofu),2022-07-14,23:01～24:00,0.0356,0.0311,0.0332,
調布 (Chofu),2022-07-14,22:01～23:00,0.0334,0.0269,0.0308,
調布 (Chofu),2022-07-14,21:01～22:00,0.0299,0.0257,0.0280,
調布 (Chofu),2022-07-14,20:01～21:00,0.0312,0.0269,0.0290,
調布 (Chofu),2022-07-14,19:01～20:00,0.0291,0.0256,0.0275,
調布 (Chofu),2022-07-14,18:01～19:00,0.0279,0.0236,0.0264,
調布 (Chofu),2022-07-14,17:01～18:00,0.0282,0.0252,0.0266,
調布 (Chofu),2022-07-14,16:01～17:00,0.0279,0.0241,0.0263,
調布 (Chofu),2022-07-14,15:01～16:00,0.0290,0.0249,0.0270,
調布 (Chofu),2022-07-14,14:01～15:00,0.0295,0.0254,0.0272,
調布 (Chofu),2022-07-14,13:01～14:00,0.0280,0.0249,0.0263,
調布 (Chofu),2022-07-14,12:01～13:00,0.0286,0.0237,0.0261,
調布 (Chofu),2022-07-14,11:01～12:00,0.0278,0.0247,0.0261,
調布 (Chofu),2022-07-14,10:01～11:00,0.0281,0.0240,0.0259,
調布 (Chofu),2022-07-14,09:01～10:00,0.0273,0.0240,0.0258,
調布 (Chofu),2022-07-14,08:01～09:00,0.0277,0.0242,0.0262,
調布 (Chofu),2022-07-14,07:01～08:00,0.0289,0.0245,0.0271,
調布 (Chofu),2022-07-14,06:01～07:00,0.0296,0.0262,0.0276,
調布 (Chofu),2022-07-14,05:01～06:00,0.0299,0.0252,0.0272,
調布 (Chofu),2022-07-14,04:01～05:00,0.0287,0.0242,0.0265,
調布 (Chofu),2022-07-14,03:01～04:00,0.0281,0.0245,0.0263,
調布 (Chofu),2022-07-14,02:01～03:00,0.0290,0.0240,0.0267,
調布 (Chofu),2022-07-14,01:01～02:00,0.0280,0.0240,0.0260,
調布 (Chofu),2022-07-14,00:01～01:00,0.0282,0.0247,0.0263,
調布 (Chofu),2022-07-13,23:01～24:00,0.0278,0.0243,0.0261,
調布 (Chofu),2022-07-13,22:01～23:00,0.0287,0.0246,0.0266,
調布 (Chofu),2022-07-13,21:01～22:00,0.0286,0.0244,0.0265,
調布 (Chofu),2022-07-13,20:01～21:00,0.0283,0.0244,0.0264,
調布 (Chofu),2022-07-13,19:01～20:00,0.0277,0.0244,0.0261,
調布 (Chofu),2022-07-13,18:01～19:00,0.0279,0.0243,0.0261,
調布 (Chofu),2022-07-13,17:01～18:00,0.0291,0.0250,0.0266,
調布 (Chofu),2022-07-13,16:01～17:00,0.0278,0.0238,0.0263,
調布 (Chofu),2022-07-13,15:01～16:00,0.0290,0.0246,0.0267,
調布 (Chofu),2022-07-13,14:01～15:00,0.0299,0.0256,0.0276,
調布 (Chofu),2022-07-13,13:01～14:00,0.0314,0.0274,0.0296,
調布 (Chofu),2022-07-13,12:01～13:00,0.0318,0.0276,0.0300,
調布 (Chofu),2022-07-13,11:01～12:00,0.0331,0.0292,0.0310,
調布 (Chofu),2022-07-13,10:01～11:00,0.0322,0.0269,0.0297,
調布 (Chofu),2022-07-13,09:01～10:00,0.0320,0.0271,0.0294,
調布 (Chofu),2022-07-13,08:01～09:00,0.0327,0.0289,0.0309,
調布 (Chofu),2022-07-13,07:01～08:00,0.0332,0.0293,0.0309,
調布 (Chofu),2022-07-13,06:01～07:00,0.0325,0.0287,0.0304,
調布 (Chofu),2022-07-13,05:01～06:00,0.0342,0.0291,0.0310,
調布 (Chofu),2022-07-13,04:01～05:00,0.0317,0.0269,0.0295,
調布 (Chofu),2022-07-13,03:01～04:00,0.0311,0.0281,0.0296,
調布 (Chofu),2022-07-13,02:01～03:00,0.0304,0.0267,0.0287,
調布 (Chofu),2022-07-13,01:01～02:00,0.0337,0.0263,0.0296,
調布 (Chofu),2022-07-13,00:01～01:00,0.0425,0.0316,0.0364,
調布 (Chofu),2022-07-12,23:01～24:00,0.0451,0.0356,0.0401,
調布 (Chofu),2022-07-12,22:01～23:00,0.0358,0.0280,0.0313,
調布 (Chofu),2022-07-12,21:01～22:00,0.0310,0.0271,0.0292,
調布 (Chofu),2022-07-12,20:01～21:00,0.0323,0.0264,0.0289,
調布 (Chofu),2022-07-12,19:01～20:00,0.0298,0.0259,0.0280,
調布 (Chofu),2022-07-12,18:01～19:00,0.0314,0.0257,0.0280,
調布 (Chofu),2022-07-12,17:01～18:00,0.0293,0.0258,0.0277,
調布 (Chofu),2022-07-12,16:01～17:00,0.0301,0.0259,0.0280,
調布 (Chofu),2022-07-12,15:01～16:00,0.0307,0.0267,0.0283,
調布 (Chofu),2022-07-12,14:01～15:00,0.0313,0.0272,0.0290,
調布 (Chofu),2022-07-12,13:01～14:00,0.0310,0.0275,0.0295,
調布 (Chofu),2022-07-12,12:01～13:00,0.0325,0.0282,0.0303,
調布 (Chofu),2022-07-12,11:01～12:00,0.0329,0.0282,0.0303,
調布 (Chofu),2022-07-12,10:01～11:00,0.0302,0.0263,0.0285,
調布 (Chofu),2022-07-12,09:01～10:00,0.0304,0.0271,0.0284,
調布 (Chofu),2022-07-12,08:01～09:00,0.0299,0.0262,0.0284,
調布 (Chofu),2022-07-12,07:01～08:00,0.0302,0.0258,0.0283,
調布 (Chofu),2022-07-12,06:01～07:00,0.0302,0.0264,0.0282,
調布 (Chofu),2022-07-12,05:01～06:00,0.0302,0.0264,0.0281,
調布 (Chofu),2022-07-12,04:01～05:00,0.0301,0.0266,0.0285,
調布 (Chofu),2022-07-12,03:01～04:00,0.0299,0.0262,0.0282,
調布 (Chofu),2022-07-12,02:01～03:00,0.0306,0.0260,0.0280,
調布 (Chofu),2022-07-12,01:01～02:00,0.0301,0.0267,0.0281,
調布 (Chofu),2022-07-12,00:01～01:00,0.0299,0.0261,0.0282,
調布 (Chofu),2022-07-11,23:01～24:00,0.0306,0.0261,0.0282,
調布 (Chofu),2022-07-11,22:01～23:00,0.0305,0.0263,0.0280,
調布 (Chofu),2022-07-11,21:01～22:00,0.0301,0.0265,0.0281,
調布 (Chofu),2022-07-11,20:01～21:00,0.0300,0.0267,0.0281,
調布 (Chofu),2022-07-11,19:01～20:00,0.0304,0.0263,0.0281,
調布 (Chofu),2022-07-11,18:01～19:00,0.0305,0.0266,0.0283,
調布 (Chofu),2022-07-11,17:01～18:00,0.0308,0.0261,0.0283,
調布 (Chofu),2022-07-11,16:01～17:00,0.0301,0.0260,0.0282,
調布 (Chofu),2022-07-11,15:01～16:00,0.0301,0.0262,0.0281,
調布 (Chofu),2022-07-11,14:01～15:00,0.0304,0.0261,0.0283,
調布 (Chofu),2022-07-11,13:01～14:00,0.0296,0.0263,0.0282,
調布 (Chofu),2022-07-11,12:01～13:00,0.0301,0.0266,0.0283,
調布 (Chofu),2022-07-11,11:01～12:00,0.0307,0.0265,0.0286,
調布 (Chofu),2022-07-11,10:01～11:00,0.0300,0.0267,0.0281,
調布 (Chofu),2022-07-11,09:01～10:00,0.0303,0.0265,0.0286,
調布 (Chofu),2022-07-11,08:01～09:00,0.0296,0.0266,0.0279,
調布 (Chofu),2022-07-11,07:01～08:00,0.0298,0.0260,0.0280,
調布 (Chofu),2022-07-11,06:01～07:00,0.0297,0.0266,0.0283,
調布 (Chofu),2022-07-11,05:01～06:00,0.0303,0.0257,0.0281,
調布 (Chofu),2022-07-11,04:01～05:00,0.0305,0.0263,0.0284,
調布 (Chofu),2022-07-11,03:01～04:00,0.0300,0.0268,0.0282,
調布 (Chofu),2022-07-11,02:01～03:00,0.0297,0.0256,0.0280,
調布 (Chofu),2022-07-11,01:01～02:00,0.0301,0.0262,0.0281,
調布 (Chofu),2022-07-11,00:01～01:00,0.0304,0.0264,0.0283,
